Location: Koslow
(50.3020°N, 18.5663°E)
Time: 22:49:32
(UTC+00:00)

STARLINK-1284 - Pass Details

Date: 07 June 2020
Orbit: 548 x 551 km, 53.0° (Epoch: 12 July)

Event Time Altitude Azimuth Distance (km) Brightness Sun altitude
Exits shadow 01:22:39 - 262° (W) 2,392 6.5 -9.0°
Reaches altitude 10° 01:24:05 10° 264° (W) 1,824 5.9 -8.9°
Maximum altitude 01:28:12 68° 348° (NNW) 598 4.0 -8.5°
Drops below altitude 10° 01:32:21 10° 72° (ENE) 1,828 7.3 -8.1°
Sets 01:34:36 0° 75° (ENE) 2,724 8.2 -7.8°
